Location: Lombard
(41.8800°N, 88.0080°W)
Time: 14:50:36
(UTC-05:00)

A-11 Canister half - Pass Details

Date: 20 April 2024
Orbit: 1514 x 1685 km, 47.2° (Epoch: 23 May)

Event Time Altitude Azimuth Distance (km) Brightness Sun altitude
Rises 20:28:55 0° 284° (WNW) 4,829 13.6 -9.4°
Reaches altitude 10° 20:35:21 10° 254° (WSW) 3,880 11.8 -10.5°
Maximum altitude 20:37:52 11° 239° (WSW) 3,796 11.5 -10.9°
Drops below altitude 10° 20:40:24 10° 224° (SW) 3,904 11.3 -11.3°
Sets 20:47:02 0° 193° (SSW) 4,912 11.5 -12.4°
